Torna al catalogo

BREEZE-M DEB

LostHEO
NORAD 38615·DEBRIS·🇷🇺 Russia

Lanciato Mar 14, 2008 da Baikonur Cosmodrome

Loading…

Prossimi Passaggi (prossime 24 ore)

TLE

ObsoletoSource: Space-Track

Epoca: Jun 23, 2022, 23:37 UTC

1 38615U 08011BN  22174.98420852 -.00000236  00000-0 -31647-3 0  9994
2 38615  49.2257  28.2650 6466937 244.7367  37.0163  3.11787707124964

Traccia BREEZE-M DEB in tempo reale con AllMySat

Download on the App Store